Regional Weather Roundup
Issued by NWS Newport/Morehead, NC

Current Version | Previous Version | Graphics & Text | Print | Product List | Glossary Off
Versions: 1 2 3 4 5 6 7 8 9 10 11 12 13 14 15 16 17 18 19 20 21 22 23 24 25 26 27 28 29 30 31 32 33 34 35 36 37 38 39 40 41 42 43 44 45 46 47 48 49 50

000
ASUS42 KMHX 281925
RWRMHX
WEATHER ROUNDUP FOR EASTERN NORTH CAROLINA
NATIONAL WEATHER SERVICE NEWPORT/MOREHEAD CITY NC
300 PM EDT SAT MAY 28 2016

NOTE: "FAIR" INDICATES FEW OR NO CLOUDS BELOW 12,000 FEET
WITH NO SIGNIFICANT WEATHER AND/OR OBSTRUCTIONS TO VISIBILITY

NCZ015>017-031-032-045>047-102-103-282000-
NORTH COAST

CITY           SKY/WX    TMP DP  RH WIND       PRES   REMARKS
EDENTON        SUNNY     83  72  69 E10       30.17F
ELIZABETH CITY SUNNY     81  66  60 SE14      30.18F
KITTY HAWK     CLEAR     82  67  60 NE5       30.18F
MANTEO         NOT AVBL

$$

NCZ045>047-081-094-103-104-282000-
CENTRAL COAST

CITY           SKY/WX    TMP DP  RH WIND       PRES   REMARKS
FRISCO         PTSUNNY   84  67  56 E10       30.16F

$$

NCZ095-097-098-100-101-282000-
SOUTHERN COAST

CITY           SKY/WX    TMP DP  RH WIND       PRES   REMARKS
BEAUFORT       MOSUNNY   81  69  67 E8G16     30.15F
CEDAR ISLAND   NOT AVBL
JACKSONVILLE   MOSUNNY   83  65  54 SE13      30.13F
PINEY ISLAND   CLEAR    N/A N/A N/A E13       30.16F
WILMINGTON     CLOUDY    78  68  71 E15G22    30.13F


$$

NCZ011>013-027>030-043-044-078>080-089-090>093-098-282000-
COASTAL PLAIN

CITY           SKY/WX    TMP DP  RH WIND       PRES   REMARKS
AHOSKIE        SUNNY     83  59  43 E5        30.16F
CLINTON        MOSUNNY   83  67  57 E7        30.13F
ELIZABETHTOWN  CLOUDY    76  68  76 CALM      30.12F
GOLDSBORO      MOSUNNY  N/A N/A N/A E9          N/A
GREENVILLE     CLOUDY    86  64  48 S7        30.16S
HAVELOCK       PTSUNNY   85  66  53 NE15      30.16F
KENANSVILLE    CLOUDY    80  66  62 CALM      30.15F
KINSTON        MOSUNNY   82  64  54 SE13      30.16F
NEW BERN       CLOUDY    82  63  52 SE10      30.16F
RICHLANDS      PTSUNNY   82  70  66 NE13G20   30.15
ROCKY MOUNT    MOSUNNY   85  60  42 CALM      30.15F
WASHINGTON     MOSUNNY   83  67  58 S12       30.15F
WHITEVILLE     CLOUDY    81  68  64 E8        30.11F

$$

AMZ130-135-150-152-154-156-158-170-250-252-270-ANZ085-086-088-633-658-670-282000-
MARINE OBSERVATIONS

STATION/POSITION TIME  TEMP    WIND        PRES    WAVE   SWELL
                       AIR SEA DIR/SP/G            HT/PER HT/PER
                 (UTC) (F)     (DEG/KT/KT) (MB)    (FT/S) (FT/S)
CHESAPEAKE LIGHT 1900   71     120/ 11/ 11 1023.1
64 E VA BEACH    1850   70 65   40/  4/  6 1022.7    3/ 8   3/ 8
DUCK             1900   71 67   60/  8/  9 1021.7
2 E DUCK         1811      69                N/A     3/ 7
OREGON INLET     1900   75 75   40/  9/ 11 1021.9
13E OREGON INLT  1900      72                N/A     3/ 8   3/ 8
HATTERAS CG      1900   80 74  100/  7/ 11 1021.0
DIAMOND BUOY     1850   78 78   80/ 10/ 10 1021.1    6/ 8   5/ 8
CAPE LOOKOUT     1900   77      40/  8/ 11 1020.6
BEAUFORT LAB     1900   79 74   80/ 11/ 13 1020.2
30 SE NEW RVR IN 1825      75                N/A     6/ 8
27 SE WRIGHTSVLE 1908   77 74   80/ 14/ 17 1019.9
5 SE WRIGHTSVLE  1908   76 75   70/ 14/ 17 1020.4
225 S CAPE HAT   1850   76 76  100/ 16/ 17 1018.1    4/ 6   2/ 7
41 SE CHARLESTON 1850   76 76   40/ 21/ 25 1016.1    7/ 9   5/ 9

$$




USA.gov is the U.S. government's official web portal to all federal, state and local government web resources and services.